{"data":{"norad_id":69219,"epoch":"2026-09-20T00:07:05.582208Z","epoch_age_seconds":69735,"freshness":"FRESH","line1":"1 69219U 26115J   26263.00492572  .00017192  00000+0  53352-3 0  9990","line2":"2 69219  97.2839 279.0934 0001583  93.8946 266.2477 15.33451146 19217","mean_motion":15.33451146,"eccentricity":0.0001583,"inclination_deg":97.2839,"raan_deg":279.0934,"arg_perigee_deg":93.8946,"mean_anomaly_deg":266.2477,"bstar":0.00053352,"rev_number":1921,"period_min":93.905828285188,"perigee_km":464.44153669036,"apogee_km":466.60824004421,"semimajor_km":6843.6618883673,"source":"CELESTRAK","updated_at":"2026-09-20T09:00:44.103273Z"}}